Seaglider Canopus on mission DY029 Piloting

  • Public vehicle
  • Serial Number sg533
  • Operated by NOC on the SSB project

  • Deployed: 2015/04/09 00:00:00 UTC (1652 days ago)
  • Recovered: 2015/04/24 00:00:00 UTC (1637 days ago)
  • Time at Sea: 15 days
  • Profiles Performed: 279

Near Real-Time Data

 
cdom
chlor
density
oxygen
potential_temperature
salinity

Communication Log

# Updated Depth Speed Plots
197621 2015-04-24 03:53:17 UTC (1637 days ago)
197496 2015-04-24 03:02:02 UTC (1637 days ago)
197492 2015-04-24 02:08:19 UTC (1637 days ago)
197464 2015-04-24 01:20:01 UTC (1637 days ago)
197692 2015-04-24 00:26:50 UTC (1637 days ago)
197713 2015-04-23 23:36:32 UTC (1637 days ago)
197467 2015-04-23 22:46:02 UTC (1637 days ago)
197471 2015-04-23 21:50:50 UTC (1637 days ago)
197473 2015-04-23 20:58:31 UTC (1638 days ago)
197503 2015-04-23 20:09:20 UTC (1638 days ago)
197597 2015-04-23 19:16:32 UTC (1638 days ago)
197470 2015-04-23 18:23:50 UTC (1638 days ago)
197527 2015-04-23 17:32:27 UTC (1638 days ago)
197530 2015-04-23 16:39:39 UTC (1638 days ago)
197534 2015-04-23 15:50:02 UTC (1638 days ago)
197707 2015-04-23 15:01:02 UTC (1638 days ago)
197521 2015-04-23 14:17:02 UTC (1638 days ago)
197629 2015-04-23 13:35:02 UTC (1638 days ago)
197438 2015-04-23 12:47:32 UTC (1638 days ago)
197448 2015-04-23 11:59:03 UTC (1638 days ago)